Location: Unspecified
(37.3333°N, 0.0000°E)
Time: 09:39:47
(UTC+00:00)

Tiangong 2 - Pass Details

Date: 30 May 2019
Orbit: 376 x 388 km, 42.8° (Epoch: 24 June)

Event Time Altitude Azimuth Distance (km) Brightness Sun altitude
Rises 20:34:51 0° 292° (WNW) 2,238 6.4 -14.0°
Reaches altitude 10° 20:36:55 10° 291° (WNW) 1,384 5.0 -14.3°
Maximum altitude 20:40:02 74° 206° (SSW) 393 1.0 -14.8°
Enters shadow 20:41:05 37° 129° (SE) 599 1.5 -14.9°
